HS2LXA-13 Weather Reports


time (UTC)temp
C
wind
direction
speed
KPH
gust
KPH
rain 1hr
cm
rain 24hr
cm
rain mn
cm
humidity
%
barometer
mb
20260504193024 25 112 3.2 8.0 0.05 0.00 0.10 86 1009.7
20260504192021 25 202 0.0 0.0 0.05 0.00 0.10 85 1009.2
20260504191021 25 22 4.8 12.9 0.05 0.00 0.10 87 1009.8
20260504190019 25 225 0.0 0.0 0.05 0.00 0.10 85 1009.8
20260504185017 25 225 0.0 0.0 0.05 0.00 0.10 84 1009.9
20260504184015 25 0 3.2 8.0 0.05 0.00 0.10 84 1010.0
20260504183007 25 90 4.8 12.9 0.05 0.00 0.10 85 1009.9
20260504182005 25 90 16.1 37.0 0.05 0.00 0.10 85 1010.0
20260504181003 26 0 0.0 0.0 0.05 0.00 0.10 83 1010.4
20260504180002 25 22 0.0 0.0 0.05 0.00 0.10 84 1010.5
20260504175008 25 22 1.6 6.4 0.05 0.00 0.10 83 1010.9
20260504174001 25 0 0.0 0.0 0.05 0.00 0.05 83 1010.9
20260504173000 25 225 0.0 0.0 0.03 0.00 0.05 83 1011.1
20260504172000 26 22 4.8 12.9 0.03 0.00 0.05 83 1011.5
20260504170958 25 90 0.0 0.0 0.03 0.00 0.00 82 1011.6
20260504150934 30 22 0.0 0.0 0.00 0.00 0.00 85 1011.9
20260504140911 30 112 0.0 0.0 0.00 0.00 0.00 86 1010.6
20260504081014 35 67 0.0 0.0 0.00 0.00 0.00 74 1007.9
20260504045937 36 112 4.8 11.3 0.00 0.00 0.00 76 1010.6
20260504044936 36 315 9.7 24.1 0.00 0.00 0.00 76 1011.0
20260504043935 36 202 9.7 22.5 0.00 0.00 0.00 76 1011.0
20260504042932 35 112 11.3 24.1 0.00 0.00 0.00 75 1011.1
20260504041931 36 0 9.7 24.1 0.00 0.00 0.00 76 1011.3
20260504040931 36 0 11.3 27.4 0.00 0.00 0.00 73 1011.1
20260504035929 36 67 22.5 53.1 0.00 0.00 0.00 72 1011.4
20260504034928 36 67 32.2 72.4 0.00 0.00 0.00 74 1011.4
20260504033926 36 67 8.0 20.9 0.00 0.00 0.00 74 1011.5
20260504032923 36 0 6.4 16.1 0.00 0.00 0.00 74 1011.8
20260504031921 35 112 4.8 9.7 0.00 0.00 0.00 74 1011.6
20260504030920 35 0 19.3 43.5 0.00 0.00 0.00 74 1011.8
20260504025918 35 0 48.3 107.8 0.00 0.00 0.00 74 1011.8
20260504024912 35 67 11.3 24.1 0.00 0.00 0.00 74 1011.7
20260504023911 35 112 8.0 20.9 0.00 0.00 0.00 75 1011.7
20260504022909 36 67 8.0 17.7 0.00 0.00 0.00 76 1011.5
20260504021906 35 112 8.0 19.3 0.00 0.00 0.00 75 1011.5
20260504020906 35 112 6.4 14.5 0.00 0.00 0.00 76 1011.4
20260504014927 35 67 8.0 17.7 0.00 0.00 0.00 76 1011.5
20260504013926 35 112 14.5 33.8 0.00 0.00 0.00 77 1011.5
20260504012924 35 202 14.5 32.2 0.00 0.00 0.00 78 1011.5
20260504011926 35 202 3.2 9.7 0.00 0.00 0.00 78 1011.3
20260504010922 35 67 20.9 48.3 0.00 0.00 0.00 78 1011.1
20260504005921 37 67 0.0 0.0 0.00 0.00 0.00 79 1011.1
20260504004912 38 112 6.4 14.5 0.00 0.00 0.00 80 1011.0
20260504003910 36 112 3.2 8.0 0.00 0.00 0.00 80 1010.8
20260504002907 35 0 9.7 20.9 0.00 0.00 0.00 81 1010.6
20260504001907 32 315 1.6 3.2 0.00 0.00 0.00 81 1010.6
20260504000907 33 315 12.9 30.6 0.00 0.00 0.00 82 1010.5
20260503235103 32 67 8.0 19.3 0.00 0.00 0.00 82 1010.1
20260503234059 31 67 6.4 14.5 0.00 0.00 0.00 81 1009.8
20260503233058 30 315 1.6 6.4 0.00 0.00 0.00 82 1009.8
20260503232058 30 315 0.0 0.0 0.00 0.00 0.00 81 1009.7
20260503231056 30 0 27.4 61.2 0.00 0.00 0.00 81 1009.6
20260503230055 30 67 12.9 29.0 0.00 0.00 0.00 81 1009.5
20260503225053 30 67 6.4 14.5 0.00 0.00 0.00 81 1009.4
20260503224052 30 202 14.5 32.2 0.00 0.00 0.00 81 1009.4
20260503223051 30 67 1.6 3.2 0.00 0.00 0.00 81 1009.3
20260503222049 30 67 4.8 11.3 0.00 0.00 0.00 81 1009.2
20260503221048 30 67 0.0 1.6 0.00 0.00 0.00 81 1009.1
20260503220043 30 67 0.0 0.0 0.00 0.00 0.00 82 1009.1
20260503215041 30 67 0.0 0.0 0.00 0.00 0.00 81 1009.0
20260503214040 30 67 0.0 0.0 0.00 0.00 0.00 81 1009.0
20260503213039 30 202 12.9 30.6 0.00 0.00 0.00 81 1009.1
20260503212038 30 67 4.8 11.3 0.00 0.00 0.00 81 1009.0
20260503211042 30 67 0.0 1.6 0.00 0.00 0.00 81 1009.1
20260503210037 30 67 1.6 4.8 0.00 0.00 0.00 82 1009.0
20260503205034 30 112 3.2 9.7 0.00 0.00 0.00 82 1009.0
20260503204032 30 67 4.8 9.7 0.00 0.00 0.00 83 1009.0
20260503203055 30 112 4.8 11.3 0.00 0.00 0.00 82 1009.1
20260503202030 30 112 11.3 27.4 0.00 0.00 0.00 82 1009.1
20260503201027 30 0 4.8 11.3 0.00 0.00 0.00 81 1008.9
20260503200021 30 202 14.5 35.4 0.00 0.00 0.00 82 1009.0
20260503195020 30 67 4.8 12.9 0.00 0.00 0.00 82 1009.1
20260503194019 30 0 4.8 11.3 0.00 0.00 0.00 84 1009.3